| time (UTC) | temp F | wind direction | speed MPH | gust MPH | rain 1hr in | rain 24hr in | rain mn in | humidity % | barometer mb |
| 20260507113122 | 62 | 32 | 2.0 | 3.0 | 0.31 | 1.06 | 1.06 | 99 | 1011.5 |
| 20260507112620 | 62 | 23 | 3.0 | 4.0 | 0.24 | 1.03 | 1.03 | 99 | 1011.6 |
| 20260507112116 | 62 | 39 | 3.0 | 4.0 | 0.54 | 1.01 | 1.01 | 99 | 1011.6 |
| 20260507111614 | 62 | 235 | 2.0 | 4.0 | 0.90 | 0.99 | 0.99 | 99 | 1011.7 |
| 20260507111110 | 62 | 243 | 2.0 | 9.0 | 0.59 | 0.91 | 0.91 | 99 | 1011.8 |
| 20260507110607 | 62 | 13 | 2.0 | 6.0 | 0.12 | 0.83 | 0.83 | 99 | 1011.9 |
| 20260507105600 | 62 | 23 | 1.0 | 1.0 | 0.07 | 0.81 | 0.81 | 99 | 1011.2 |
| 20260507105055 | 62 | 188 | 0.0 | 0.0 | 0.05 | 0.80 | 0.80 | 99 | 1010.9 |
| 20260507104553 | 62 | 188 | 0.0 | 0.0 | 0.12 | 0.80 | 0.80 | 99 | 1010.9 |
| 20260507104049 | 62 | 177 | 0.0 | 0.0 | 0.12 | 0.79 | 0.79 | 99 | 1011.0 |
| 20260507103545 | 62 | 177 | 0.0 | 0.0 | 0.28 | 0.78 | 0.78 | 99 | 1010.9 |
| 20260507103042 | 62 | 26 | 0.0 | 0.0 | 0.40 | 0.76 | 0.76 | 99 | 1011.1 |
| 20260507102539 | 62 | 24 | 0.0 | 1.0 | 0.61 | 0.73 | 0.73 | 99 | 1011.2 |
| 20260507102035 | 62 | 20 | 1.0 | 2.0 | 0.61 | 0.69 | 0.69 | 99 | 1011.4 |
| 20260507101530 | 62 | 330 | 0.0 | 0.0 | 0.35 | 0.63 | 0.63 | 99 | 1011.4 |
| 20260507101027 | 62 | 206 | 0.0 | 0.0 | 0.24 | 0.59 | 0.59 | 99 | 1011.4 |
| 20260507100525 | 62 | 16 | 1.0 | 2.0 | 0.19 | 0.57 | 0.57 | 99 | 1011.3 |
| 20260507100023 | 62 | 99 | 0.0 | 0.0 | 0.00 | 0.54 | 0.54 | 99 | 1011.4 |
| 20260507095520 | 62 | 232 | 0.0 | 0.0 | 0.00 | 0.54 | 0.54 | 99 | 1011.6 |
| 20260507095016 | 62 | 249 | 0.0 | 0.0 | 0.00 | 0.54 | 0.54 | 99 | 1011.8 |
| 20260507094513 | 62 | 259 | 0.0 | 0.0 | 0.05 | 0.54 | 0.54 | 99 | 1011.9 |
| 20260507094010 | 62 | 207 | 0.0 | 0.0 | 0.00 | 0.53 | 0.53 | 99 | 1011.9 |
| 20260507093507 | 62 | 225 | 0.0 | 0.0 | 0.00 | 0.53 | 0.53 | 99 | 1012.0 |
| 20260507093006 | 62 | 209 | 0.0 | 0.0 | 0.00 | 0.53 | 0.53 | 99 | 1011.9 |
| 20260507092502 | 62 | 225 | 0.0 | 2.0 | 0.00 | 0.53 | 0.53 | 99 | 1012.1 |
| 20260507091959 | 62 | 229 | 0.0 | 0.0 | 0.00 | 0.53 | 0.53 | 99 | 1011.9 |
| 20260507091455 | 62 | 221 | 0.0 | 0.0 | 0.00 | 0.53 | 0.53 | 99 | 1011.8 |
| 20260507090951 | 62 | 130 | 0.0 | 1.0 | 0.00 | 0.53 | 0.53 | 99 | 1012.2 |
| 20260507090442 | 62 | 233 | 0.0 | 0.0 | 0.00 | 0.53 | 0.53 | 99 | 1012.5 |
| 20260507085939 | 62 | 219 | 0.0 | 0.0 | 0.00 | 0.53 | 0.53 | 99 | 1012.4 |
| 20260507085436 | 62 | 215 | 0.0 | 0.0 | 0.00 | 0.53 | 0.53 | 99 | 1012.5 |
| 20260507084932 | 62 | 232 | 0.0 | 0.0 | 0.00 | 0.53 | 0.53 | 99 | 1012.6 |
| 20260507084429 | 62 | 162 | 0.0 | 0.0 | 0.00 | 0.53 | 0.53 | 99 | 1012.7 |
| 20260507083926 | 62 | 219 | 0.0 | 0.0 | 0.00 | 0.53 | 0.53 | 99 | 1012.5 |
| 20260507083423 | 62 | 232 | 0.0 | 0.0 | 0.07 | 0.53 | 0.53 | 99 | 1012.7 |
| 20260507082919 | 62 | 231 | 0.0 | 0.0 | 0.07 | 0.53 | 0.53 | 99 | 1012.8 |
| 20260507082415 | 62 | 231 | 0.0 | 0.0 | 0.00 | 0.52 | 0.52 | 99 | 1012.8 |
| 20260507081912 | 62 | 227 | 0.0 | 0.0 | 0.05 | 0.52 | 0.52 | 99 | 1012.5 |
| 20260507081408 | 62 | 311 | 0.0 | 0.0 | 0.17 | 0.52 | 0.52 | 99 | 1012.4 |
| 20260507080905 | 62 | 234 | 0.0 | 1.0 | 0.19 | 0.51 | 0.51 | 99 | 1012.3 |
| 20260507080401 | 62 | 218 | 0.0 | 1.0 | 0.07 | 0.49 | 0.49 | 99 | 1012.3 |
| 20260507075856 | 62 | 233 | 0.0 | 2.0 | 0.00 | 0.48 | 0.48 | 99 | 1012.5 |
| 20260507075353 | 62 | 302 | 0.0 | 1.0 | 0.00 | 0.48 | 0.48 | 99 | 1012.7 |
| 20260507074849 | 62 | 217 | 0.0 | 1.0 | 0.00 | 0.48 | 0.48 | 99 | 1013.4 |
| 20260507074347 | 62 | 310 | 0.0 | 0.0 | 0.00 | 0.48 | 0.48 | 99 | 1013.3 |
| 20260507073844 | 62 | 311 | 0.0 | 1.0 | 0.00 | 0.48 | 0.48 | 99 | 1013.2 |
| 20260507073340 | 62 | 312 | 0.0 | 0.0 | 0.00 | 0.48 | 0.48 | 99 | 1013.1 |
| 20260507072838 | 62 | 313 | 0.0 | 0.0 | 0.00 | 0.48 | 0.48 | 99 | 1013.4 |
| 20260507072335 | 62 | 324 | 0.0 | 0.0 | 0.00 | 0.48 | 0.48 | 99 | 1013.3 |
| 20260507071832 | 62 | 324 | 0.0 | 0.0 | 0.00 | 0.48 | 0.48 | 99 | 1012.9 |
| 20260507071329 | 62 | 325 | 0.0 | 2.0 | 0.00 | 0.48 | 0.48 | 99 | 1012.7 |
| 20260507070825 | 62 | 55 | 2.0 | 2.0 | 0.00 | 0.48 | 0.48 | 99 | 1012.7 |
| 20260507070323 | 62 | 45 | 3.0 | 3.0 | 0.00 | 0.48 | 0.48 | 99 | 1013.0 |
| 20260507065820 | 62 | 33 | 2.0 | 4.0 | 0.00 | 0.48 | 0.48 | 99 | 1012.8 |
| 20260507065316 | 63 | 242 | 1.0 | 3.0 | 0.00 | 0.48 | 0.48 | 99 | 1013.3 |
| 20260507064814 | 63 | 273 | 0.0 | 0.0 | 0.05 | 0.48 | 0.48 | 99 | 1013.4 |
| 20260507064312 | 63 | 241 | 0.0 | 0.0 | 0.12 | 0.48 | 0.48 | 99 | 1013.5 |
| 20260507063810 | 63 | 240 | 0.0 | 0.0 | 0.07 | 0.47 | 0.47 | 99 | 1013.8 |
| 20260507063306 | 63 | 32 | 1.0 | 1.0 | 0.05 | 0.46 | 0.46 | 99 | 1013.5 |
| 20260507062803 | 63 | 25 | 0.0 | 0.0 | 0.05 | 0.46 | 0.46 | 99 | 1013.6 |
| 20260507062300 | 62 | 25 | 0.0 | 0.0 | 0.00 | 0.45 | 0.45 | 99 | 1013.6 |
| 20260507061758 | 63 | 25 | 1.0 | 1.0 | 0.07 | 0.45 | 0.45 | 99 | 1014.0 |
| 20260507061255 | 62 | 301 | 0.0 | 0.0 | 0.07 | 0.45 | 0.45 | 99 | 1014.0 |
| 20260507060754 | 62 | 301 | 0.0 | 1.0 | 0.05 | 0.44 | 0.44 | 99 | 1013.6 |
| 20260507054016 | 62 | 30 | 0.0 | 1.0 | 0.47 | 0.33 | 0.33 | 99 | 1014.8 |
| 20260507053514 | 62 | 30 | 0.0 | 1.0 | 0.47 | 0.33 | 0.33 | 99 | 1014.8 |
| 20260507053012 | 63 | 30 | 0.0 | 2.0 | 0.42 | 0.31 | 0.31 | 99 | 1014.7 |
| 20260507052509 | 63 | 239 | 0.0 | 0.0 | 0.35 | 0.27 | 0.27 | 99 | 1014.7 |
| 20260507052006 | 63 | 241 | 0.0 | 0.0 | 0.42 | 0.24 | 0.24 | 99 | 1015.0 |
| 20260507051504 | 63 | 238 | 1.0 | 1.0 | 0.35 | 0.20 | 0.20 | 99 | 1015.0 |
| 20260507051000 | 63 | 237 | 0.0 | 0.0 | 0.28 | 0.17 | 0.17 | 99 | 1014.9 |
| 20260507050456 | 63 | 237 | 0.0 | 0.0 | 0.31 | 0.14 | 0.14 | 99 | 1014.9 |
| 20260507045953 | 63 | 247 | 1.0 | 1.0 | 0.17 | 0.11 | 0.11 | 99 | 1015.2 |
| 20260507045450 | 63 | 213 | 0.0 | 0.0 | 0.12 | 0.09 | 0.09 | 99 | 1014.6 |
| 20260507044947 | 63 | 235 | 0.0 | 0.0 | 0.12 | 0.08 | 0.08 | 99 | 1014.6 |
| 20260507044444 | 63 | 235 | 0.0 | 0.0 | 0.19 | 0.07 | 0.07 | 99 | 1014.6 |
| 20260507043940 | 63 | 235 | 0.0 | 0.0 | 0.07 | 0.05 | 0.05 | 99 | 1014.5 |
| 20260507043436 | 63 | 221 | 0.0 | 1.0 | 0.00 | 0.04 | 0.04 | 99 | 1014.7 |
| 20260507042933 | 63 | 210 | 0.0 | 0.0 | 0.00 | 0.04 | 0.04 | 99 | 1014.6 |
| 20260507042430 | 63 | 210 | 0.0 | 0.0 | 0.05 | 0.04 | 0.04 | 99 | 1014.7 |
| 20260507041925 | 63 | 210 | 0.0 | 0.0 | 0.05 | 0.04 | 0.04 | 99 | 1014.9 |
| 20260507041422 | 63 | 210 | 0.0 | 0.0 | 0.07 | 0.03 | 0.03 | 99 | 1014.9 |
| 20260507040920 | 63 | 210 | 0.0 | 0.0 | 0.19 | 0.03 | 0.03 | 99 | 1014.7 |
| 20260507040415 | 63 | 221 | 0.0 | 0.0 | 0.19 | 0.01 | 0.01 | 99 | 1014.7 |
| 20260507035911 | 63 | 221 | 0.0 | 0.0 | 0.35 | 1.58 | 1.58 | 99 | 1014.7 |
| 20260507035408 | 63 | 222 | 0.0 | 0.0 | 0.24 | 1.54 | 1.54 | 99 | 1014.7 |
| 20260507034905 | 63 | 222 | 0.0 | 0.0 | 0.42 | 1.52 | 1.52 | 99 | 1014.9 |
| 20260507034402 | 63 | 162 | 0.0 | 0.0 | 0.78 | 1.50 | 1.50 | 99 | 1014.7 |
| 20260507033900 | 64 | 232 | 0.0 | 0.0 | 0.54 | 1.45 | 1.45 | 99 | 1015.0 |
| 20260507033358 | 64 | 252 | 0.0 | 0.0 | 0.24 | 1.38 | 1.38 | 99 | 1015.3 |
| 20260507032854 | 64 | 238 | 0.0 | 0.0 | 0.24 | 1.36 | 1.36 | 99 | 1015.2 |
| 20260507032351 | 64 | 239 | 0.0 | 0.0 | 0.35 | 1.34 | 1.34 | 99 | 1015.2 |
| 20260507031847 | 64 | 239 | 0.0 | 0.0 | 0.35 | 1.32 | 1.32 | 99 | 1015.1 |
| 20260507031344 | 64 | 216 | 0.0 | 0.0 | 0.31 | 1.28 | 1.28 | 99 | 1015.7 |
| 20260507030841 | 64 | 314 | 0.0 | 1.0 | 0.35 | 1.26 | 1.26 | 99 | 1015.1 |
| 20260507030338 | 64 | 212 | 0.0 | 0.0 | 0.59 | 1.23 | 1.23 | 99 | 1015.3 |
| 20260507025834 | 64 | 240 | 0.0 | 2.0 | 0.59 | 1.19 | 1.19 | 99 | 1015.5 |
| 20260507025332 | 64 | 259 | 1.0 | 4.0 | 0.47 | 1.11 | 1.11 | 99 | 1015.7 |
| 20260507024830 | 64 | 214 | 1.0 | 1.0 | 0.54 | 1.08 | 1.08 | 99 | 1015.5 |
| 20260507024327 | 64 | 203 | 0.0 | 0.0 | 0.31 | 1.03 | 1.03 | 99 | 1015.0 |
| 20260507023822 | 64 | 208 | 0.0 | 1.0 | 0.17 | 0.99 | 0.99 | 99 | 1015.1 |
| 20260507023319 | 64 | 202 | 0.0 | 0.0 | 0.12 | 0.98 | 0.98 | 99 | 1014.7 |
| 20260507022817 | 64 | 197 | 0.0 | 3.0 | 0.07 | 0.96 | 0.96 | 99 | 1014.7 |
| 20260507022313 | 64 | 191 | 2.0 | 3.0 | 0.07 | 0.96 | 0.96 | 99 | 1014.7 |
| 20260507021809 | 64 | 24 | 3.0 | 3.0 | 0.17 | 0.95 | 0.95 | 99 | 1014.8 |
| 20260507021305 | 65 | 246 | 0.0 | 0.0 | 0.35 | 0.95 | 0.95 | 99 | 1015.2 |
| 20260507020803 | 65 | 31 | 2.0 | 4.0 | 0.78 | 0.92 | 0.92 | 99 | 1014.6 |
| 20260507020259 | 65 | 37 | 3.0 | 4.0 | 1.21 | 0.89 | 0.89 | 99 | 1014.6 |
| 20260507015757 | 65 | 208 | 0.0 | 2.0 | 0.85 | 0.77 | 0.77 | 99 | 1015.0 |
| 20260507015254 | 66 | 213 | 0.0 | 6.0 | 0.42 | 0.67 | 0.67 | 99 | 1015.1 |
| 20260507014751 | 67 | 305 | 0.0 | 6.0 | 0.35 | 0.63 | 0.63 | 99 | 1014.8 |
| 20260507014247 | 67 | 239 | 1.0 | 6.0 | 0.17 | 0.60 | 0.60 | 99 | 1014.5 |
| 20260507013744 | 68 | 243 | 1.0 | 4.0 | 0.07 | 0.57 | 0.57 | 99 | 1014.9 |
| 20260507013241 | 68 | 207 | 0.0 | 0.0 | 0.12 | 0.57 | 0.57 | 99 | 1014.6 |
| 20260507012739 | 68 | 2 | 0.0 | 0.0 | 0.12 | 0.56 | 0.56 | 99 | 1014.6 |
| 20260507012234 | 68 | 3 | 0.0 | 0.0 | 0.12 | 0.55 | 0.55 | 99 | 1014.2 |
| 20260507011732 | 69 | 231 | 0.0 | 1.0 | 0.42 | 0.54 | 0.54 | 99 | 1014.5 |
| 20260507011228 | 69 | 234 | 0.0 | 0.0 | 0.50 | 0.53 | 0.53 | 99 | 1014.3 |
| 20260507010727 | 69 | 233 | 0.0 | 0.0 | 0.12 | 0.46 | 0.46 | 99 | 1014.3 |
| 20260507010224 | 69 | 242 | 0.0 | 1.0 | 0.17 | 0.45 | 0.45 | 99 | 1014.2 |
| 20260507005722 | 69 | 248 | 0.0 | 0.0 | 0.31 | 0.44 | 0.44 | 99 | 1014.0 |
| 20260507005218 | 69 | 242 | 0.0 | 0.0 | 0.31 | 0.42 | 0.42 | 99 | 1014.5 |
| 20260507004714 | 69 | 232 | 0.0 | 1.0 | 0.12 | 0.39 | 0.39 | 99 | 1014.2 |
| 20260507004212 | 69 | 252 | 0.0 | 0.0 | 0.12 | 0.37 | 0.37 | 99 | 1014.5 |
| 20260507003708 | 69 | 229 | 1.0 | 2.0 | 0.12 | 0.37 | 0.37 | 99 | 1014.4 |
| 20260507003203 | 69 | 244 | 1.0 | 3.0 | 0.07 | 0.35 | 0.35 | 99 | 1014.5 |
| 20260507002700 | 69 | 244 | 0.0 | 3.0 | 0.00 | 0.34 | 0.34 | 99 | 1014.6 |
| 20260507002156 | 69 | 231 | 0.0 | 3.0 | 0.12 | 0.34 | 0.34 | 99 | 1014.6 |
| 20260507001653 | 69 | 230 | 2.0 | 4.0 | 0.17 | 0.34 | 0.34 | 98 | 1014.5 |
| 20260507001150 | 69 | 230 | 2.0 | 3.0 | 0.05 | 0.32 | 0.32 | 98 | 1014.3 |
| 20260507000646 | 69 | 248 | 1.0 | 4.0 | 0.07 | 0.31 | 0.31 | 98 | 1014.1 |
| 20260507000142 | 69 | 240 | 0.0 | 2.0 | 0.12 | 0.31 | 0.31 | 97 | 1014.3 |
| 20260506235639 | 70 | 237 | 2.0 | 6.0 | 0.24 | 0.30 | 0.30 | 97 | 1014.2 |
| 20260506235140 | 70 | 250 | 2.0 | 3.0 | 0.66 | 0.29 | 0.29 | 96 | 1014.0 |
| 20260506234637 | 70 | 264 | 2.0 | 7.0 | 0.94 | 0.25 | 0.25 | 95 | 1014.2 |
| 20260506234134 | 71 | 275 | 2.0 | 6.0 | 0.90 | 0.15 | 0.15 | 93 | 1014.4 |
| 20260506233631 | 73 | 256 | 3.0 | 6.0 | 0.54 | 0.09 | 0.09 | 89 | 1013.8 |
| 20260506233128 | 75 | 264 | 2.0 | 3.0 | 0.00 | 0.00 | 0.00 | 82 | 1013.1 |
| 20260506232624 | 76 | 223 | 1.0 | 2.0 | 0.00 | 0.00 | 0.00 | 77 | 1012.7 |
| 20260506232120 | 76 | 221 | 0.0 | 2.0 | 0.00 | 0.00 | 0.00 | 75 | 1012.4 |
| 20260506231617 | 77 | 217 | 0.0 | 1.0 | 0.00 | 0.00 | 0.00 | 73 | 1012.9 |
| 20260506231115 | 77 | 235 | 0.0 | 2.0 | 0.00 | 0.00 | 0.00 | 70 | 1012.8 |
| 20260506230612 | 78 | 235 | 0.0 | 2.0 | 0.00 | 0.00 | 0.00 | 70 | 1012.7 |
| 20260506230109 | 78 | 206 | 0.0 | 1.0 | 0.00 | 0.00 | 0.00 | 69 | 1013.3 |
| 20260506225605 | 78 | 246 | 1.0 | 1.0 | 0.00 | 0.00 | 0.00 | 68 | 1013.4 |
| 20260506225102 | 78 | 213 | 1.0 | 4.0 | 0.00 | 0.00 | 0.00 | 68 | 1013.7 |
| 20260506224559 | 78 | 263 | 4.0 | 6.0 | 0.00 | 0.00 | 0.00 | 68 | 1013.7 |
| 20260506224055 | 78 | 297 | 1.0 | 6.0 | 0.00 | 0.00 | 0.00 | 67 | 1014.1 |
| 20260506223551 | 78 | 265 | 5.0 | 7.0 | 0.00 | 0.00 | 0.00 | 67 | 1013.8 |
| 20260506223048 | 79 | 258 | 4.0 | 6.0 | 0.00 | 0.00 | 0.00 | 66 | 1013.4 |
| 20260506222545 | 79 | 248 | 1.0 | 3.0 | 0.00 | 0.00 | 0.00 | 66 | 1013.5 |
| 20260506222041 | 79 | 244 | 1.0 | 4.0 | 0.00 | 0.00 | 0.00 | 65 | 1013.6 |
| 20260506221539 | 79 | 238 | 1.0 | 9.0 | 0.00 | 0.00 | 0.00 | 65 | 1013.6 |
| 20260506221037 | 80 | 260 | 2.0 | 4.0 | 0.00 | 0.00 | 0.00 | 64 | 1013.4 |
| 20260506220532 | 80 | 238 | 4.0 | 7.0 | 0.00 | 0.00 | 0.00 | 63 | 1013.7 |
| 20260506220028 | 82 | 252 | 4.0 | 6.0 | 0.00 | 0.00 | 0.00 | 61 | 1013.3 |
| 20260506215525 | 82 | 162 | 3.0 | 9.0 | 0.00 | 0.00 | 0.00 | 61 | 1013.2 |
| 20260506215021 | 82 | 244 | 3.0 | 3.0 | 0.00 | 0.00 | 0.00 | 60 | 1013.1 |
| 20260506214518 | 82 | 262 | 4.0 | 9.0 | 0.00 | 0.00 | 0.00 | 59 | 1013.1 |
| 20260506214015 | 82 | 250 | 3.0 | 4.0 | 0.00 | 0.00 | 0.00 | 59 | 1013.1 |
| 20260506213513 | 83 | 71 | 2.0 | 6.0 | 0.00 | 0.00 | 0.00 | 59 | 1013.3 |
| 20260506213009 | 83 | 139 | 0.0 | 3.0 | 0.00 | 0.00 | 0.00 | 59 | 1013.2 |
| 20260506212505 | 81 | 237 | 1.0 | 4.0 | 0.00 | 0.00 | 0.00 | 61 | 1013.3 |
| 20260506211955 | 81 | 250 | 1.0 | 6.0 | 0.00 | 0.00 | 0.00 | 60 | 1013.0 |
| 20260506211451 | 80 | 237 | 0.0 | 3.0 | 0.00 | 0.00 | 0.00 | 61 | 1013.2 |
| 20260506210949 | 80 | 266 | 1.0 | 4.0 | 0.00 | 0.00 | 0.00 | 61 | 1013.5 |
| 20260506210444 | 81 | 200 | 3.0 | 3.0 | 0.00 | 0.00 | 0.00 | 60 | 1013.6 |
| 20260506205942 | 81 | 240 | 1.0 | 4.0 | 0.00 | 0.00 | 0.00 | 60 | 1014.0 |
| 20260506205438 | 81 | 158 | 1.0 | 3.0 | 0.00 | 0.00 | 0.00 | 60 | 1013.7 |
| 20260506204934 | 82 | 174 | 2.0 | 7.0 | 0.00 | 0.00 | 0.00 | 59 | 1014.0 |
| 20260506204432 | 82 | 217 | 1.0 | 4.0 | 0.00 | 0.00 | 0.00 | 61 | 1014.0 |
| 20260506203929 | 82 | 86 | 3.0 | 9.0 | 0.00 | 0.00 | 0.00 | 58 | 1014.0 |
| 20260506203426 | 82 | 245 | 2.0 | 10.0 | 0.00 | 0.00 | 0.00 | 59 | 1014.1 |
| 20260506202918 | 83 | 196 | 1.0 | 8.0 | 0.00 | 0.00 | 0.00 | 58 | 1013.8 |
| 20260506202415 | 85 | 239 | 2.0 | 11.0 | 0.00 | 0.00 | 0.00 | 56 | 1014.0 |
| 20260506201911 | 85 | 279 | 3.0 | 6.0 | 0.00 | 0.00 | 0.00 | 55 | 1013.8 |
| 20260506201409 | 85 | 174 | 3.0 | 8.0 | 0.00 | 0.00 | 0.00 | 56 | 1014.0 |
| 20260506200905 | 84 | 239 | 1.0 | 6.0 | 0.00 | 0.00 | 0.00 | 57 | 1014.1 |
| 20260506200401 | 83 | 169 | 2.0 | 9.0 | 0.00 | 0.00 | 0.00 | 57 | 1014.3 |
| 20260506195858 | 83 | 184 | 5.0 | 7.0 | 0.00 | 0.00 | 0.00 | 56 | 1014.6 |
| 20260506195355 | 82 | 266 | 4.0 | 6.0 | 0.00 | 0.00 | 0.00 | 59 | 1014.7 |
| 20260506194852 | 82 | 263 | 2.0 | 6.0 | 0.00 | 0.00 | 0.00 | 58 | 1014.8 |
| 20260506194349 | 83 | 241 | 4.0 | 8.0 | 0.00 | 0.00 | 0.00 | 58 | 1014.9 |
| 20260506193846 | 84 | 296 | 2.0 | 6.0 | 0.00 | 0.00 | 0.00 | 56 | 1015.0 |
| 20260506193343 | 85 | 95 | 6.0 | 10.0 | 0.00 | 0.00 | 0.00 | 55 | 1015.1 |
| 20260506192839 | 85 | 229 | 2.0 | 6.0 | 0.00 | 0.00 | 0.00 | 54 | 1015.4 |
| 20260506192336 | 83 | 259 | 5.0 | 8.0 | 0.00 | 0.00 | 0.00 | 57 | 1015.2 |
| 20260506191833 | 84 | 278 | 5.0 | 10.0 | 0.00 | 0.00 | 0.00 | 55 | 1015.2 |
| 20260506191329 | 84 | 306 | 5.0 | 10.0 | 0.00 | 0.00 | 0.00 | 55 | 1015.5 |
| 20260506190826 | 82 | 231 | 1.0 | 7.0 | 0.00 | 0.00 | 0.00 | 57 | 1015.5 |
| 20260506190323 | 83 | 177 | 0.0 | 4.0 | 0.00 | 0.00 | 0.00 | 58 | 1015.6 |
| 20260506185820 | 81 | 190 | 2.0 | 4.0 | 0.00 | 0.00 | 0.00 | 60 | 1015.7 |
| 20260506185317 | 80 | 35 | 0.0 | 2.0 | 0.00 | 0.00 | 0.00 | 61 | 1015.5 |
| 20260506184814 | 81 | 166 | 4.0 | 6.0 | 0.00 | 0.00 | 0.00 | 59 | 1015.5 |
| 20260506184311 | 80 | 213 | 0.0 | 6.0 | 0.00 | 0.00 | 0.00 | 62 | 1015.7 |
| 20260506183808 | 81 | 284 | 2.0 | 7.0 | 0.00 | 0.00 | 0.00 | 59 | 1015.8 |
| 20260506183303 | 82 | 57 | 3.0 | 9.0 | 0.00 | 0.00 | 0.00 | 58 | 1015.9 |
| 20260506182801 | 84 | 167 | 2.0 | 6.0 | 0.00 | 0.00 | 0.00 | 55 | 1015.7 |
| 20260506182257 | 81 | 189 | 3.0 | 4.0 | 0.00 | 0.00 | 0.00 | 59 | 1015.8 |
| 20260506181755 | 81 | 252 | 2.0 | 3.0 | 0.00 | 0.00 | 0.00 | 59 | 1015.7 |
| 20260506181253 | 82 | 197 | 1.0 | 4.0 | 0.00 | 0.00 | 0.00 | 57 | 1015.9 |
| 20260506180750 | 82 | 182 | 3.0 | 6.0 | 0.00 | 0.00 | 0.00 | 58 | 1015.6 |
| 20260506180246 | 82 | 244 | 2.0 | 4.0 | 0.00 | 0.00 | 0.00 | 57 | 1015.7 |
| 20260506175742 | 81 | 70 | 1.0 | 6.0 | 0.00 | 0.00 | 0.00 | 60 | 1015.5 |
| 20260506175239 | 80 | 192 | 2.0 | 10.0 | 0.00 | 0.00 | 0.00 | 61 | 1015.9 |
| 20260506174737 | 81 | 177 | 4.0 | 7.0 | 0.00 | 0.00 | 0.00 | 59 | 1015.8 |
| 20260506174233 | 81 | 196 | 1.0 | 6.0 | 0.00 | 0.00 | 0.00 | 58 | 1016.0 |
| 20260506173732 | 80 | 257 | 2.0 | 9.0 | 0.00 | 0.00 | 0.00 | 60 | 1015.9 |
| 20260506173228 | 80 | 177 | 4.0 | 6.0 | 0.00 | 0.00 | 0.00 | 59 | 1015.8 |
| 20260506172725 | 80 | 208 | 3.0 | 8.0 | 0.00 | 0.00 | 0.00 | 61 | 1015.8 |
| 20260506172221 | 79 | 174 | 2.0 | 6.0 | 0.00 | 0.00 | 0.00 | 63 | 1015.9 |
| 20260506171719 | 81 | 191 | 8.0 | 10.0 | 0.00 | 0.00 | 0.00 | 59 | 1015.8 |
| 20260506171216 | 79 | 98 | 4.0 | 8.0 | 0.00 | 0.00 | 0.00 | 61 | 1015.9 |
| 20260506170714 | 80 | 254 | 1.0 | 4.0 | 0.00 | 0.00 | 0.00 | 62 | 1016.1 |
| 20260506170210 | 80 | 188 | 3.0 | 7.0 | 0.00 | 0.00 | 0.00 | 59 | 1016.2 |
| 20260506165709 | 78 | 208 | 2.0 | 6.0 | 0.00 | 0.00 | 0.00 | 62 | 1016.2 |
| 20260506165205 | 77 | 220 | 2.0 | 8.0 | 0.00 | 0.00 | 0.00 | 65 | 1016.6 |
| 20260506164702 | 80 | 205 | 1.0 | 4.0 | 0.00 | 0.00 | 0.00 | 60 | 1016.0 |
| 20260506164200 | 80 | 60 | 1.0 | 6.0 | 0.00 | 0.00 | 0.00 | 62 | 1015.8 |
| 20260506163656 | 78 | 161 | 2.0 | 4.0 | 0.00 | 0.00 | 0.00 | 63 | 1016.0 |
| 20260506163151 | 76 | 241 | 4.0 | 6.0 | 0.00 | 0.00 | 0.00 | 66 | 1016.6 |
| 20260506162647 | 75 | 188 | 2.0 | 4.0 | 0.00 | 0.00 | 0.00 | 65 | 1016.7 |
| 20260506162145 | 75 | 235 | 2.0 | 6.0 | 0.00 | 0.00 | 0.00 | 67 | 1016.9 |
| 20260506161642 | 76 | 267 | 2.0 | 4.0 | 0.00 | 0.00 | 0.00 | 64 | 1016.8 |
| 20260506161139 | 74 | 246 | 1.0 | 3.0 | 0.00 | 0.00 | 0.00 | 70 | 1016.8 |
| 20260506160636 | 73 | 219 | 2.0 | 3.0 | 0.00 | 0.00 | 0.00 | 71 | 1017.1 |
| 20260506160133 | 73 | 262 | 1.0 | 3.0 | 0.00 | 0.00 | 0.00 | 72 | 1017.0 |
| 20260506155632 | 72 | 248 | 3.0 | 7.0 | 0.00 | 0.00 | 0.00 | 72 | 1017.0 |
| 20260506155128 | 72 | 288 | 3.0 | 6.0 | 0.00 | 0.00 | 0.00 | 72 | 1017.1 |
| 20260506153230 | 72 | 285 | 2.0 | 10.0 | 0.00 | 0.00 | 0.00 | 71 | 1017.1 |
| 20260506152727 | 72 | 242 | 6.0 | 10.0 | 0.00 | 0.00 | 0.00 | 71 | 1016.9 |
| 20260506152225 | 73 | 239 | 0.0 | 2.0 | 0.00 | 0.00 | 0.00 | 71 | 1017.0 |
| 20260506151724 | 72 | 265 | 2.0 | 7.0 | 0.00 | 0.00 | 0.00 | 72 | 1017.0 |
| 20260506151220 | 72 | 239 | 3.0 | 6.0 | 0.00 | 0.00 | 0.00 | 72 | 1017.1 |
| 20260506150716 | 72 | 255 | 2.0 | 3.0 | 0.00 | 0.00 | 0.00 | 73 | 1017.0 |
| 20260506150213 | 72 | 247 | 2.0 | 4.0 | 0.00 | 0.00 | 0.00 | 73 | 1016.8 |
| 20260506145711 | 72 | 132 | 3.0 | 6.0 | 0.00 | 0.00 | 0.00 | 73 | 1016.8 |
| 20260506145207 | 71 | 264 | 4.0 | 4.0 | 0.00 | 0.00 | 0.00 | 74 | 1016.9 |
| 20260506144704 | 71 | 267 | 6.0 | 9.0 | 0.00 | 0.00 | 0.00 | 74 | 1017.0 |
| 20260506144201 | 71 | 280 | 5.0 | 7.0 | 0.00 | 0.00 | 0.00 | 74 | 1016.8 |
| 20260506143659 | 72 | 287 | 3.0 | 4.0 | 0.00 | 0.00 | 0.00 | 73 | 1016.9 |
| 20260506143156 | 71 | 256 | 0.0 | 2.0 | 0.00 | 0.00 | 0.00 | 74 | 1016.9 |
| 20260506142655 | 71 | 173 | 3.0 | 4.0 | 0.00 | 0.00 | 0.00 | 73 | 1016.8 |
| 20260506142152 | 70 | 246 | 0.0 | 4.0 | 0.00 | 0.00 | 0.00 | 75 | 1016.6 |
| 20260506141650 | 71 | 261 | 3.0 | 6.0 | 0.00 | 0.00 | 0.00 | 75 | 1016.5 |
| 20260506141148 | 71 | 201 | 3.0 | 7.0 | 0.00 | 0.00 | 0.00 | 74 | 1016.3 |
| 20260506140645 | 71 | 259 | 1.0 | 4.0 | 0.00 | 0.00 | 0.00 | 74 | 1016.6 |
| 20260506140142 | 70 | 272 | 2.0 | 7.0 | 0.00 | 0.00 | 0.00 | 76 | 1016.3 |
| 20260506135639 | 70 | 252 | 2.0 | 7.0 | 0.00 | 0.00 | 0.00 | 75 | 1016.1 |
| 20260506135135 | 70 | 285 | 2.0 | 6.0 | 0.00 | 0.00 | 0.00 | 76 | 1016.2 |
| 20260506134632 | 70 | 163 | 4.0 | 6.0 | 0.00 | 0.00 | 0.00 | 76 | 1016.1 |
| 20260506134128 | 70 | 244 | 2.0 | 7.0 | 0.00 | 0.00 | 0.00 | 77 | 1016.4 |
| 20260506133625 | 70 | 239 | 2.0 | 6.0 | 0.00 | 0.00 | 0.00 | 77 | 1016.1 |
| 20260506133122 | 69 | 262 | 2.0 | 4.0 | 0.00 | 0.00 | 0.00 | 78 | 1016.3 |
| 20260506132620 | 69 | 219 | 3.0 | 6.0 | 0.00 | 0.00 | 0.00 | 79 | 1016.0 |
| 20260506132116 | 69 | 232 | 2.0 | 4.0 | 0.00 | 0.00 | 0.00 | 80 | 1016.0 |
| 20260506131614 | 69 | 190 | 4.0 | 6.0 | 0.00 | 0.00 | 0.00 | 80 | 1016.2 |
| 20260506131110 | 68 | 224 | 0.0 | 6.0 | 0.00 | 0.00 | 0.00 | 81 | 1015.8 |
| 20260506130607 | 68 | 255 | 1.0 | 4.0 | 0.00 | 0.00 | 0.00 | 82 | 1016.1 |
| 20260506130105 | 68 | 243 | 0.0 | 2.0 | 0.00 | 0.00 | 0.00 | 82 | 1015.9 |
| 20260506125603 | 67 | 260 | 3.0 | 4.0 | 0.00 | 0.00 | 0.00 | 83 | 1015.9 |
| 20260506125100 | 67 | 239 | 1.0 | 2.0 | 0.00 | 0.00 | 0.00 | 83 | 1016.1 |
| 20260506124558 | 67 | 272 | 2.0 | 4.0 | 0.00 | 0.00 | 0.00 | 83 | 1016.1 |
| 20260506124055 | 67 | 263 | 1.0 | 3.0 | 0.00 | 0.00 | 0.00 | 83 | 1016.2 |
| 20260506123553 | 67 | 240 | 2.0 | 4.0 | 0.00 | 0.00 | 0.00 | 83 | 1016.1 |
| 20260506123051 | 67 | 252 | 2.0 | 4.0 | 0.00 | 0.00 | 0.00 | 84 | 1016.1 |
| 20260506122547 | 66 | 288 | 3.0 | 4.0 | 0.00 | 0.00 | 0.00 | 84 | 1016.2 |
| 20260506122046 | 66 | 256 | 1.0 | 2.0 | 0.00 | 0.00 | 0.00 | 84 | 1016.1 |
| 20260506121543 | 66 | 250 | 0.0 | 2.0 | 0.00 | 0.00 | 0.00 | 84 | 1016.3 |
| 20260506121039 | 66 | 240 | 1.0 | 3.0 | 0.00 | 0.00 | 0.00 | 84 | 1016.1 |
| 20260506120537 | 66 | 243 | 0.0 | 3.0 | 0.00 | 0.00 | 0.00 | 84 | 1016.2 |
| 20260506120034 | 66 | 269 | 1.0 | 2.0 | 0.00 | 0.00 | 0.00 | 84 | 1015.9 |
| 20260506115532 | 66 | 232 | 0.0 | 3.0 | 0.00 | 0.00 | 0.00 | 84 | 1015.9 |
| 20260506115030 | 66 | 218 | 0.0 | 3.0 | 0.00 | 0.00 | 0.00 | 84 | 1015.8 |
| 20260506114527 | 66 | 233 | 0.0 | 2.0 | 0.00 | 0.00 | 0.00 | 84 | 1015.6 |
| 20260506114026 | 66 | 235 | 1.0 | 2.0 | 0.00 | 0.00 | 0.00 | 83 | 1015.8 |